User: anonymous   Login
Location: Unspecified
(0.0000°N, 0.0000°E)
Time: 09:34:35
(UTC+02:00)
Language:

Transit 2A - Orbit

View from above orbital plane
View from above orbital plane
View from above satellite
View from above satellite

Ground track
Ground track

The orbit data is extracted from the following two-line orbital elements,

1 00045U 60007A   16182.76346714 -.00000037  00000-0  17999-4 0  9998
2 00045  66.6936 235.4688 0263075 288.7768  68.4958 14.33494183915197
Epoch (UTC): 30 June 2016 18:19:23
Eccentricity: 0.0263075
inclination: 66.6936°
perigee height: 592 km
apogee height: 968 km
right ascension of ascending node: 235.4688°
argument of perigee: 288.7768°
revolutions per day: 14.33494183
mean anomaly at epoch: 68.4958°
orbit number at epoch: 91519

The dashed part of the orbit path shows where the satellite is in the earth's shadow,  

DLR